Regional Weather Roundup
Issued by NWS

Home | Current Version | Previous Version | Graphics & Text | Print | Product List | Glossary On
Versions: 1 2 3 4 5 6 7 8 9 10 11 12 13 14 15 16 17 18 19 20 21 22 23 24 25 26 27 28 29 30 31 32 33 34 35 36 37 38 39 40 41 42 43 44 45 46 47 48 49
000
ASUS45 KSLC 311510
RWRUT

UTAH REGIONAL WEATHER ROUNDUP
NATIONAL WEATHER SERVICE SALT LAKE CITY UT
900 AM MDT FRI JUL 31 2015

UTZ001>011-023>025-311600-

NORTHERN UTAH

CITY           SKY/WX    TMP DP  RH WIND       PRES   REMARKS
BRIGHAM CITY   SUNNY     65  39  38 N3        30.27S
HILL AFB       MOSUNNY   65  33  29 E15       30.29R
LOGAN          SUNNY     62  39  42 CALM      30.31R
OGDEN          SUNNY     73  34  23 VRB3      30.26R
PROVO AIRPORT  MOSUNNY   66  34  30 CALM      30.30R
SALT LAKE CITY MOSUNNY   71  36  27 SE7       30.25S
VERNAL         SUNNY     69  25  19 CALM      30.34R
WENDOVER       SUNNY     75  32  20 CALM      30.25S
HEBER CITY     MOSUNNY   55  34  44 CALM      30.40S
WEST JORDAN    SUNNY     72  37  28 S7        30.28R

$$

UTZ012>022-026-027-311600-

SOUTHERN/CENTRAL UTAH

CITY           SKY/WX    TMP DP  RH WIND       PRES   REMARKS
BLANDING       PTSUNNY   67  55  64 S5        30.46R
BRYCE CANYON   MOSUNNY   68  47  46 SE6       30.49S
CEDAR CITY     PTSUNNY   77  38  24 CALM      30.32R
DELTA          SUNNY     71  26  18 SW5       30.28R
HANKSVILLE     SUNNY     79  50  36 SE3       30.26S
MILFORD        PTSUNNY   74  28  18 S7        30.28R
MOAB/CYNLANDS  SUNNY     80  53  39 SE8       30.26R
PRICE          SUNNY     74  20  13 E3        30.35R
ST GEORGE      MOSUNNY   82  50  32 E5        30.15R

$$

REGIONAL REPORTS     COLORADO/ARIZONA

CITY           SKY/WX    TMP DP  RH WIND       PRES   REMARKS
CRAIG, CO      SUNNY     63  40  42 CALM      30.40S
GRAND JUNCTION MOSUNNY   70  30  22 CALM      30.30R
RIFLE          SUNNY     67  39  35 CALM      30.36S
MONTROSE       MOSUNNY   74  45  35 CALM      30.38S
CORTEZ         PTSUNNY   65  59  81 CALM      30.40R
PAGE, AZ       MOSUNNY   81  55  40 S3        30.25R
GRAND CANYON   MOSUNNY   73  53  49 VRB5      30.42R
KINGMAN        SUNNY     81  56  42 S6        30.16R
FLAGSTAFF      SUNNY     65  56  72 NE5       30.45R

$$

REGIONAL REPORTS    NEVADA/IDAHO/WYOMING

CITY           SKY/WX    TMP DP  RH WIND       PRES   REMARKS
LAS VEGAS, NV  PTSUNNY   91  52  26 N5        30.01R
ELY            MOSUNNY   67  23  19 CALM      30.39S
ELKO           PTSUNNY   63  31  30 E5        30.33R
POCATELLO, ID  SUNNY     63  41  44 NW3       30.31R
BURLEY         SUNNY     64  43  46 E3        30.27R
EVANSTON, WY   MOSUNNY   66  25  21 CALM      30.46R
ROCK SPRINGS   SUNNY     62  28  27 E3        30.44R
KEMMERER       SUNNY     61  30  31 N6        30.48S

$$


USA.gov is the U.S. government's official web portal to all federal, state and local government web resources and services.